Location: Buckenweiler
(49.0667°N, 10.2500°E)
Time: 08:37:14
(UTC+00:00)

GEOS 3 Rocket - Pass Details

Date: 18 January 2026
Orbit: 768 x 845 km, 115.0° (Epoch: 14 February)

Event Time Altitude Azimuth Distance (km) Brightness Sun altitude
Rises 04:53:38 0° 133° (SE) 3,311 7.7 -21.1°
Reaches altitude 10° 04:55:54 10° 133° (SE) 2,395 6.8 -20.7°
Maximum altitude 05:01:07 82° 47° (NE) 839 3.7 -19.9°
Enters shadow 05:04:16 26° 322° (NW) 1,606 4.7 -19.4°
